Time,TemperatureF,DewpointF,PressureIn,WindDirection,WindDirectionDegrees,WindSpeedMPH,WindSpeedGustMPH,Humidity,HourlyPrecipIn,Conditions,Clouds,dailyrainin,SoftwareType,DateUTC
2013-04-13 00:00:00,65.5,62.2,29.28,SE,144,1.3,3.5,89,0.00,,FEW,0.00,WeatherDisplay:10.37,2013-04-13 05:00:00,
2013-04-13 00:05:00,65.5,62.2,29.28,SE,124,0.1,2.3,89,0.00,,FEW,0.00,WeatherDisplay:10.37,2013-04-13 05:05:00,
2013-04-13 00:10:00,65.4,62.1,29.28,ESE,123,1.8,3.5,89,0.00,,FEW,0.00,WeatherDisplay:10.37,2013-04-13 05:10:00,
2013-04-13 00:15:00,65.4,62.1,29.28,ESE,118,0.3,3.5,89,0.00,,FEW,0.00,WeatherDisplay:10.37,2013-04-13 05:15:00,
2013-04-13 00:20:00,65.4,62.1,29.27,SSE,153,0.7,3.5,89,0.00,,FEW,0.00,WeatherDisplay:10.37,2013-04-13 05:20:00,
2013-04-13 00:25:00,65.4,62.1,29.27,SSE,161,0.9,3.5,89,0.00,,FEW,0.00,WeatherDisplay:10.37,2013-04-13 05:25:00,
2013-04-13 00:30:00,65.5,62.2,29.28,ESE,116,0.5,3.5,89,0.00,,FEW,0.00,WeatherDisplay:10.37,2013-04-13 05:30:00,
2013-04-13 00:35:00,65.5,62.5,29.28,SE,136,1.6,2.3,90,0.00,,FEW,0.00,WeatherDisplay:10.37,2013-04-13 05:35:00,
2013-04-13 00:40:00,65.5,62.2,29.28,SE,126,0.3,1.1,89,0.00,,FEW,0.00,WeatherDisplay:10.37,2013-04-13 05:40:00,
2013-04-13 00:45:00,65.6,62.6,29.28,SE,136,1.2,3.5,90,0.00,,FEW,0.00,WeatherDisplay:10.37,2013-04-13 05:45:00,
2013-04-13 00:50:00,65.7,62.7,29.28,SE,141,1.6,3.5,90,0.00,,FEW,0.00,WeatherDisplay:10.37,2013-04-13 05:50:00,
2013-04-13 00:55:00,65.8,62.8,29.27,SSE,147,2.1,5.8,90,0.00,,FEW,0.00,WeatherDisplay:10.37,2013-04-13 05:55:00,
2013-04-13 01:00:00,65.9,62.9,29.27,SSE,149,4.3,5.8,90,0.00,,FEW,0.00,WeatherDisplay:10.37,2013-04-13 06:00:00,
2013-04-13 01:05:00,65.9,62.6,29.27,SE,135,1.8,5.8,89,0.00,,FEW,0.00,WeatherDisplay:10.37,2013-04-13 06:05:00,
2013-04-13 01:10:00,65.9,62.6,29.27,SSE,151,1.4,5.8,89,0.00,,FEW,0.00,WeatherDisplay:10.37,2013-04-13 06:10:00,
2013-04-13 01:15:00,66.1,62.4,29.27,SE,133,4.0,5.8,88,0.00,,FEW,0.00,WeatherDisplay:10.37,2013-04-13 06:15:00,
2013-04-13 01:21:00,66.2,62.5,29.27,SSE,150,3.1,3.5,88,0.00,,FEW,0.00,WeatherDisplay:10.37,2013-04-13 06:21:00,
2013-04-13 01:26:00,66.1,62.4,29.26,SSE,149,3.4,5.8,88,0.00,,FEW,0.00,WeatherDisplay:10.37,2013-04-13 06:26:00,
2013-04-13 01:32:00,66.2,62.2,29.26,SSE,150,2.3,5.8,87,0.00,,FEW,0.00,WeatherDisplay:10.37,2013-04-13 06:32:00,
2013-04-13 01:37:00,66.1,62.4,29.26,SSE,165,0.9,3.5,88,0.00,,FEW,0.00,WeatherDisplay:10.37,2013-04-13 06:37:00,
2013-04-13 01:42:00,66.0,62.3,29.26,ESE,121,3.1,5.8,88,0.00,,FEW,0.00,WeatherDisplay:10.37,2013-04-13 06:42:00,
2013-04-13 01:47:00,65.9,62.2,29.26,SE,128,0.5,1.1,88,0.00,,FEW,0.00,WeatherDisplay:10.37,2013-04-13 06:47:00,
2013-04-13 01:52:00,65.7,62.0,29.25,ESE,114,2.7,4.6,88,0.00,,FEW,0.00,WeatherDisplay:10.37,2013-04-13 06:52:00,
2013-04-13 01:57:00,65.5,62.2,29.25,ESE,106,2.5,4.2,89,0.00,,FEW,0.00,WeatherDisplay:10.37,2013-04-13 06:57:00,
2013-04-13 02:02:00,65.3,62.0,29.25,SE,144,1.4,2.3,89,0.00,,FEW,0.00,WeatherDisplay:10.37,2013-04-13 07:02:00,
2013-04-13 02:07:00,65.1,61.8,29.25,SE,127,0.7,2.1,89,0.00,,FEW,0.00,WeatherDisplay:10.37,2013-04-13 07:07:00,
2013-04-13 02:13:00,65.0,62.0,29.25,SE,129,2.6,3.5,90,0.00,,FEW,0.00,WeatherDisplay:10.37,2013-04-13 07:13:00,
2013-04-13 02:18:00,65.1,62.1,29.25,ESE,105,1.7,2.3,90,0.00,,FEW,0.00,WeatherDisplay:10.37,2013-04-13 07:18:00,
2013-04-13 02:23:00,65.1,62.1,29.25,East,85,0.5,2.3,90,0.00,,FEW,0.00,WeatherDisplay:10.37,2013-04-13 07:23:00,
2013-04-13 02:28:00,65.0,62.0,29.25,ESE,121,0.1,1.1,90,0.00,,FEW,0.00,WeatherDisplay:10.37,2013-04-13 07:28:00,
2013-04-13 02:33:00,64.9,61.9,29.25,SE,126,0.1,1.1,90,0.00,,FEW,0.00,WeatherDisplay:10.37,2013-04-13 07:33:00,
2013-04-13 02:38:00,64.7,62.0,29.24,ESE,116,0.2,1.1,91,0.00,,FEW,0.00,WeatherDisplay:10.37,2013-04-13 07:38:00,
2013-04-13 02:44:00,64.6,61.9,29.24,ESE,119,0.0,1.1,91,0.00,,FEW,0.00,WeatherDisplay:10.37,2013-04-13 07:44:00,
2013-04-13 02:49:00,64.6,61.9,29.24,ESE,123,0.1,1.1,91,0.00,,FEW,0.00,WeatherDisplay:10.37,2013-04-13 07:49:00,
2013-04-13 02:54:00,64.5,62.1,29.25,ESE,110,0.1,1.1,92,0.00,,FEW,0.00,WeatherDisplay:10.37,2013-04-13 07:54:00,
2013-04-13 02:59:00,64.4,62.0,29.24,ESE,109,0.0,1.1,92,0.00,,FEW,0.00,WeatherDisplay:10.37,2013-04-13 07:59:00,
2013-04-13 03:05:00,64.2,61.8,29.24,ESE,123,0.0,0.0,92,0.00,,FEW,0.00,WeatherDisplay:10.37,2013-04-13 08:05:00,
2013-04-13 03:10:00,64.2,61.8,29.24,ESE,112,0.1,2.3,92,0.00,,FEW,0.00,WeatherDisplay:10.37,2013-04-13 08:10:00,
2013-04-13 03:15:00,64.2,62.1,29.25,SE,127,0.0,1.1,93,0.00,,FEW,0.00,WeatherDisplay:10.37,2013-04-13 08:15:00,
2013-04-13 03:21:00,64.2,62.1,29.24,ESE,122,0.3,1.1,93,0.00,,FEW,0.00,WeatherDisplay:10.37,2013-04-13 08:21:00,
2013-04-13 03:26:00,64.2,62.1,29.25,SE,140,0.2,2.3,93,0.00,,FEW,0.00,WeatherDisplay:10.37,2013-04-13 08:26:00,
2013-04-13 03:31:00,64.2,62.1,29.25,ESE,123,0.2,1.1,93,0.00,,FEW,0.00,WeatherDisplay:10.37,2013-04-13 08:31:00,
2013-04-13 03:37:00,64.2,62.1,29.24,ESE,110,0.3,1.1,93,0.00,,FEW,0.00,WeatherDisplay:10.37,2013-04-13 08:37:00,
2013-04-13 03:42:00,64.1,62.0,29.24,ESE,111,0.0,0.0,93,0.00,,FEW,0.00,WeatherDisplay:10.37,2013-04-13 08:42:00,
2013-04-13 03:47:00,64.0,61.9,29.24,ESE,110,0.0,1.1,93,0.00,,FEW,0.00,WeatherDisplay:10.37,2013-04-13 08:47:00,
2013-04-13 03:52:00,63.9,61.8,29.24,ESE,110,0.0,0.0,93,0.00,,FEW,0.00,WeatherDisplay:10.37,2013-04-13 08:52:00,
2013-04-13 03:57:00,63.8,61.7,29.24,ESE,111,0.0,1.1,93,0.00,,FEW,0.00,WeatherDisplay:10.37,2013-04-13 08:57:00,
2013-04-13 04:02:00,63.8,62.0,29.24,ESE,111,0.0,1.1,94,0.00,,FEW,0.00,WeatherDisplay:10.37,2013-04-13 09:02:00,
2013-04-13 04:07:00,63.7,61.9,29.23,ESE,110,0.0,1.1,94,0.00,,FEW,0.00,WeatherDisplay:10.37,2013-04-13 09:07:00,
2013-04-13 04:13:00,63.7,61.9,29.23,ESE,109,0.2,1.1,94,0.00,,FEW,0.00,WeatherDisplay:10.37,2013-04-13 09:13:00,
2013-04-13 04:18:00,63.8,62.0,29.23,ESE,111,0.6,2.3,94,0.00,,FEW,0.00,WeatherDisplay:10.37,2013-04-13 09:18:00,
2013-04-13 04:23:00,63.8,62.0,29.23,ESE,106,0.0,0.0,94,0.00,,FEW,0.00,WeatherDisplay:10.37,2013-04-13 09:23:00,
2013-04-13 04:28:00,63.7,61.9,29.23,ESE,106,0.1,1.1,94,0.00,,FEW,0.00,WeatherDisplay:10.37,2013-04-13 09:28:00,
2013-04-13 04:35:00,63.7,61.9,29.23,ESE,106,0.0,0.0,94,0.00,,FEW,0.00,WeatherDisplay:10.37,2013-04-13 09:35:00,
2013-04-13 04:40:00,63.6,61.8,29.23,ESE,106,0.0,0.0,94,0.00,,FEW,0.00,WeatherDisplay:10.37,2013-04-13 09:40:00,
2013-04-13 04:46:00,63.6,62.1,29.23,ESE,106,0.0,0.0,95,0.00,,FEW,0.00,WeatherDisplay:10.37,2013-04-13 09:46:00,
2013-04-13 04:51:00,63.7,62.2,29.23,ESE,106,0.0,0.0,95,0.00,,FEW,0.00,WeatherDisplay:10.37,2013-04-13 09:51:00,
2013-04-13 04:57:00,63.9,62.4,29.22,ESE,106,0.1,1.1,95,0.00,,FEW,0.00,WeatherDisplay:10.37,2013-04-13 09:57:00,
2013-04-13 05:02:00,63.9,62.4,29.22,ESE,106,0.1,1.1,95,0.00,,FEW,0.00,WeatherDisplay:10.37,2013-04-13 10:02:00,
2013-04-13 05:07:00,64.0,62.5,29.22,ESE,105,0.0,2.3,95,0.00,,FEW,0.00,WeatherDisplay:10.37,2013-04-13 10:07:00,
2013-04-13 05:12:00,64.0,62.5,29.22,ESE,111,0.1,1.1,95,0.00,,FEW,0.00,WeatherDisplay:10.37,2013-04-13 10:12:00,
2013-04-13 05:17:00,64.1,64.1,29.23,ESE,104,0.9,2.1,100,0.00,,FEW,0.00,WeatherDisplay:10.37,2013-04-13 10:17:00,
2013-04-13 05:23:00,64.2,64.2,29.22,SE,126,0.7,2.3,100,0.00,,FEW,0.00,WeatherDisplay:10.37,2013-04-13 10:23:00,
2013-04-13 05:28:00,64.3,64.3,29.22,ESE,105,0.3,2.1,100,0.00,,FEW,0.00,WeatherDisplay:10.37,2013-04-13 10:28:00,
2013-04-13 05:33:00,64.3,64.3,29.22,ESE,121,0.2,2.3,100,0.00,,FEW,0.00,WeatherDisplay:10.37,2013-04-13 10:33:00,
2013-04-13 05:39:00,64.4,64.4,29.22,ESE,109,0.6,2.3,100,0.00,,FEW,0.00,WeatherDisplay:10.37,2013-04-13 10:39:00,
2013-04-13 05:44:00,64.4,64.4,29.22,ESE,118,0.2,1.1,100,0.00,,FEW,0.00,WeatherDisplay:10.37,2013-04-13 10:44:00,
2013-04-13 05:50:00,64.5,64.5,29.22,ESE,115,0.0,1.1,100,0.00,,FEW,0.00,WeatherDisplay:10.37,2013-04-13 10:50:00,
2013-04-13 05:55:00,64.5,64.5,29.22,East,100,0.5,2.1,100,0.00,,FEW,0.00,WeatherDisplay:10.37,2013-04-13 10:55:00,
2013-04-13 06:00:00,64.5,64.5,29.22,ENE,75,0.4,2.3,100,0.00,,FEW,0.00,WeatherDisplay:10.37,2013-04-13 11:00:00,
2013-04-13 06:05:00,64.5,64.5,29.22,East,99,0.1,1.1,100,0.00,,FEW,0.00,WeatherDisplay:10.37,2013-04-13 11:05:00,
2013-04-13 06:10:00,64.6,64.6,29.21,ENE,75,1.5,3.2,100,0.00,,FEW,0.00,WeatherDisplay:10.37,2013-04-13 11:10:00,
2013-04-13 06:15:00,64.6,64.6,29.22,ESE,110,1.1,5.6,100,0.00,,FEW,0.00,WeatherDisplay:10.37,2013-04-13 11:15:00,
2013-04-13 06:20:00,64.6,64.6,29.22,ESE,105,0.9,2.1,100,0.00,,FEW,0.00,WeatherDisplay:10.37,2013-04-13 11:20:00,
2013-04-13 06:25:00,64.7,64.7,29.22,ESE,114,1.0,3.5,100,0.00,,FEW,0.00,WeatherDisplay:10.37,2013-04-13 11:25:00,
2013-04-13 06:31:00,64.7,64.7,29.22,ESE,117,1.3,3.5,100,0.00,,FEW,0.00,WeatherDisplay:10.37,2013-04-13 11:31:00,
2013-04-13 06:36:00,64.8,64.8,29.22,East,88,0.9,3.5,100,0.00,,FEW,0.00,WeatherDisplay:10.37,2013-04-13 11:36:00,
2013-04-13 06:42:00,64.9,64.9,29.22,ESE,103,1.1,3.5,100,0.00,,FEW,0.00,WeatherDisplay:10.37,2013-04-13 11:42:00,
2013-04-13 06:47:00,65.0,65.0,29.22,ESE,111,1.4,3.5,100,0.00,,FEW,0.00,WeatherDisplay:10.37,2013-04-13 11:47:00,
2013-04-13 06:52:00,65.1,65.1,29.22,ESE,122,0.8,3.8,100,0.00,,FEW,0.00,WeatherDisplay:10.37,2013-04-13 11:52:00,
2013-04-13 06:58:00,65.1,65.1,29.22,ESE,111,1.7,2.1,100,0.00,,FEW,0.00,WeatherDisplay:10.37,2013-04-13 11:58:00,
2013-04-13 07:03:00,65.2,65.2,29.22,ESE,109,0.4,3.5,100,0.00,,FEW,0.00,WeatherDisplay:10.37,2013-04-13 12:03:00,
2013-04-13 07:08:00,65.3,65.3,29.22,ESE,106,0.4,2.3,100,0.00,,FEW,0.00,WeatherDisplay:10.37,2013-04-13 12:08:00,
2013-04-13 07:13:00,65.4,65.4,29.22,SE,140,0.0,2.3,100,0.00,,FEW,0.00,WeatherDisplay:10.37,2013-04-13 12:13:00,
2013-04-13 07:18:00,65.4,65.4,29.22,ESE,122,0.0,1.1,100,0.00,,FEW,0.00,WeatherDisplay:10.37,2013-04-13 12:18:00,
2013-04-13 07:23:00,65.4,65.4,29.22,ESE,108,0.1,1.1,100,0.00,,FEW,0.00,WeatherDisplay:10.37,2013-04-13 12:23:00,
2013-04-13 07:28:00,65.5,65.5,29.22,East,92,1.2,2.3,100,0.00,,FEW,0.00,WeatherDisplay:10.37,2013-04-13 12:28:00,
2013-04-13 07:33:00,65.5,65.5,29.22,ESE,116,0.6,1.1,100,0.00,,FEW,0.00,WeatherDisplay:10.37,2013-04-13 12:33:00,
2013-04-13 07:38:00,65.6,65.6,29.22,ESE,109,0.4,1.1,100,0.00,,FEW,0.00,WeatherDisplay:10.37,2013-04-13 12:38:00,
2013-04-13 07:44:00,65.9,65.9,29.22,SE,126,0.9,3.5,100,0.00,,FEW,0.00,WeatherDisplay:10.37,2013-04-13 12:44:00,
2013-04-13 07:49:00,66.1,66.1,29.22,East,90,2.2,3.5,100,0.00,,FEW,0.00,WeatherDisplay:10.37,2013-04-13 12:49:00,
2013-04-13 07:55:00,66.2,66.2,29.21,ESE,103,2.9,3.5,100,0.00,,FEW,0.00,WeatherDisplay:10.37,2013-04-13 12:55:00,
2013-04-13 08:00:00,66.3,64.8,29.21,ESE,111,3.1,9.2,95,0.00,,FEW,0.00,WeatherDisplay:10.37,2013-04-13 13:00:00,
2013-04-13 08:05:00,66.4,64.9,29.21,ESE,114,1.4,5.8,95,0.00,,FEW,0.00,WeatherDisplay:10.37,2013-04-13 13:05:00,
2013-04-13 08:10:00,66.6,65.1,29.22,East,101,4.3,5.8,95,0.00,,FEW,0.00,WeatherDisplay:10.37,2013-04-13 13:10:00,
2013-04-13 08:15:00,67.0,65.5,29.22,East,83,2.5,5.3,95,0.00,,FEW,0.00,WeatherDisplay:10.37,2013-04-13 13:15:00,
2013-04-13 08:21:00,67.5,65.7,29.22,ESE,116,4.7,8.1,94,0.00,,FEW,0.00,WeatherDisplay:10.37,2013-04-13 13:21:00,
2013-04-13 08:27:00,67.9,66.1,29.22,ESE,103,2.3,6.3,94,0.00,,FEW,0.00,WeatherDisplay:10.37,2013-04-13 13:27:00,
2013-04-13 08:32:00,68.4,66.0,29.22,SE,128,2.8,8.1,92,0.00,,FEW,0.00,WeatherDisplay:10.37,2013-04-13 13:32:00,
2013-04-13 08:38:00,68.9,66.2,29.22,ESE,105,5.7,7.4,91,0.00,,FEW,0.00,WeatherDisplay:10.37,2013-04-13 13:38:00,
2013-04-13 08:43:00,69.1,66.0,29.23,East,85,2.8,5.8,90,0.00,,FEW,0.00,WeatherDisplay:10.37,2013-04-13 13:43:00,
2013-04-13 08:48:00,69.4,66.0,29.22,ESE,105,3.1,9.4,89,0.00,,FEW,0.00,WeatherDisplay:10.37,2013-04-13 13:48:00,
2013-04-13 08:53:00,69.5,65.8,29.22,East,92,3.9,9.2,88,0.00,,FEW,0.00,WeatherDisplay:10.37,2013-04-13 13:53:00,
2013-04-13 08:58:00,69.4,65.7,29.22,ENE,77,5.2,15.0,88,0.00,,FEW,0.00,WeatherDisplay:10.37,2013-04-13 13:58:00,
2013-04-13 09:03:00,69.6,65.9,29.22,ESE,108,2.5,8.1,88,0.00,,FEW,0.00,WeatherDisplay:10.37,2013-04-13 14:03:00,
2013-04-13 09:08:00,70.2,66.1,29.22,SE,142,7.9,11.5,87,0.00,,FEW,0.00,WeatherDisplay:10.37,2013-04-13 14:08:00,
2013-04-13 09:13:00,70.3,65.6,29.22,East,87,5.1,17.3,85,0.00,,FEW,0.00,WeatherDisplay:10.37,2013-04-13 14:13:00,
2013-04-13 09:18:00,70.5,65.8,29.22,ESE,111,3.8,9.4,85,0.00,,FEW,0.00,WeatherDisplay:10.37,2013-04-13 14:18:00,
2013-04-13 09:23:00,70.5,65.8,29.22,SE,138,3.0,9.2,85,0.00,,FEW,0.00,WeatherDisplay:10.37,2013-04-13 14:23:00,
2013-04-13 09:28:00,70.7,65.6,29.22,ESE,104,6.7,10.4,84,0.00,,FEW,0.00,WeatherDisplay:10.37,2013-04-13 14:28:00,
2013-04-13 09:33:00,70.9,66.2,29.22,ENE,66,8.1,8.1,85,0.00,,FEW,0.00,WeatherDisplay:10.37,2013-04-13 14:33:00,
2013-04-13 09:39:00,71.2,66.1,29.22,ENE,73,8.9,9.2,84,0.00,,FEW,0.00,WeatherDisplay:10.37,2013-04-13 14:39:00,
2013-04-13 09:44:00,71.5,65.7,29.22,East,79,5.2,12.7,82,0.00,,FEW,0.00,WeatherDisplay:10.37,2013-04-13 14:44:00,
2013-04-13 09:49:00,71.8,66.4,29.23,ESE,117,3.4,10.4,83,0.00,,FEW,0.00,WeatherDisplay:10.37,2013-04-13 14:49:00,
2013-04-13 09:54:00,72.6,66.8,29.22,ESE,104,2.8,15.0,82,0.00,,FEW,0.00,WeatherDisplay:10.37,2013-04-13 14:54:00,
2013-04-13 09:59:00,72.4,65.9,29.22,ESE,102,7.7,10.4,80,0.00,,FEW,0.00,WeatherDisplay:10.37,2013-04-13 14:59:00,
2013-04-13 10:04:00,72.6,66.1,29.22,East,85,5.0,12.7,80,0.00,,FEW,0.00,WeatherDisplay:10.37,2013-04-13 15:04:00,
2013-04-13 10:09:00,72.4,65.5,29.23,East,99,10.7,18.8,79,0.00,,FEW,0.00,WeatherDisplay:10.37,2013-04-13 15:09:00,
2013-04-13 10:14:00,72.0,65.5,29.22,ESE,111,6.5,10.4,80,0.00,,FEW,0.00,WeatherDisplay:10.37,2013-04-13 15:14:00,
2013-04-13 10:19:00,72.1,65.6,29.23,ESE,113,6.5,11.5,80,0.00,,FEW,0.00,WeatherDisplay:10.37,2013-04-13 15:19:00,
2013-04-13 10:24:00,72.2,66.0,29.22,ESE,104,4.5,13.2,81,0.00,,FEW,0.00,WeatherDisplay:10.37,2013-04-13 15:24:00,
2013-04-13 10:30:00,72.5,66.3,29.22,ESE,121,5.8,15.0,81,0.00,,FEW,0.00,WeatherDisplay:10.37,2013-04-13 15:30:00,
2013-04-13 10:35:00,73.0,66.5,29.23,East,92,5.4,5.8,80,0.00,,FEW,0.00,WeatherDisplay:10.37,2013-04-13 15:35:00,
2013-04-13 10:40:00,73.5,66.9,29.23,East,90,6.3,8.4,80,0.00,,FEW,0.00,WeatherDisplay:10.37,2013-04-13 15:40:00,
2013-04-13 10:45:00,72.8,65.5,29.22,ESE,115,9.2,16.1,78,0.00,,FEW,0.00,WeatherDisplay:10.37,2013-04-13 15:45:00,
2013-04-13 10:50:00,72.9,66.0,29.22,ESE,114,6.5,12.7,79,0.00,,FEW,0.00,WeatherDisplay:10.37,2013-04-13 15:50:00,
2013-04-13 10:56:00,73.1,65.8,29.22,ESE,118,6.3,15.0,78,0.00,,FEW,0.00,WeatherDisplay:10.37,2013-04-13 15:56:00,
2013-04-13 11:01:00,73.3,65.3,29.22,SE,126,11.8,18.4,76,0.00,,FEW,0.00,WeatherDisplay:10.37,2013-04-13 16:01:00,
2013-04-13 11:06:00,73.5,65.8,29.22,East,87,6.4,12.7,77,0.00,,FEW,0.00,WeatherDisplay:10.37,2013-04-13 16:06:00,
2013-04-13 11:11:00,73.3,65.3,29.23,ENE,74,11.6,15.0,76,0.00,,FEW,0.00,WeatherDisplay:10.37,2013-04-13 16:11:00,
2013-04-13 11:16:00,73.3,65.7,29.22,ESE,109,6.4,11.5,77,0.00,,FEW,0.00,WeatherDisplay:10.37,2013-04-13 16:16:00,
2013-04-13 11:22:00,73.7,65.7,29.23,SE,125,10.6,16.1,76,0.00,,FEW,0.00,WeatherDisplay:10.37,2013-04-13 16:22:00,
2013-04-13 11:27:00,73.6,65.2,29.23,ESE,117,13.1,15.0,75,0.00,,FEW,0.00,WeatherDisplay:10.37,2013-04-13 16:27:00,
2013-04-13 11:32:00,73.4,65.0,29.23,ESE,115,10.5,20.7,75,0.00,,FEW,0.00,WeatherDisplay:10.37,2013-04-13 16:32:00,
2013-04-13 11:37:00,73.2,64.8,29.23,ESE,108,8.3,15.0,75,0.00,,FEW,0.00,WeatherDisplay:10.37,2013-04-13 16:37:00,
2013-04-13 11:43:00,73.4,65.4,29.23,ENE,57,18.8,22.6,76,0.00,,FEW,0.00,WeatherDisplay:10.37,2013-04-13 16:43:00,
2013-04-13 11:48:00,73.3,65.3,29.23,ENE,75,2.9,15.0,76,0.00,,FEW,0.00,WeatherDisplay:10.37,2013-04-13 16:48:00,
2013-04-13 11:54:00,74.1,65.3,29.23,ESE,106,6.5,17.3,74,0.00,,FEW,0.00,WeatherDisplay:10.37,2013-04-13 16:54:00,
2013-04-13 11:59:00,74.2,65.4,29.23,NNE,19,13.1,13.1,74,0.00,,FEW,0.00,WeatherDisplay:10.37,2013-04-13 16:59:00,
2013-04-13 12:05:00,73.7,65.3,29.22,East,90,2.8,23.0,75,0.00,,FEW,0.00,WeatherDisplay:10.37,2013-04-13 17:05:00,
2013-04-13 12:10:00,73.9,65.5,29.22,East,90,7.2,10.4,75,0.00,,FEW,0.00,WeatherDisplay:10.37,2013-04-13 17:10:00,
2013-04-13 12:15:00,73.7,64.9,29.22,ESE,123,6.5,12.6,74,0.00,,FEW,0.00,WeatherDisplay:10.37,2013-04-13 17:15:00,
2013-04-13 12:20:00,73.4,65.0,29.22,East,100,4.8,20.7,75,0.00,,FEW,0.00,WeatherDisplay:10.37,2013-04-13 17:20:00,
2013-04-13 12:25:00,73.9,65.5,29.22,East,98,7.8,12.7,75,0.00,,FEW,0.00,WeatherDisplay:10.37,2013-04-13 17:25:00,
2013-04-13 12:30:00,74.2,65.4,29.22,East,90,8.7,23.0,74,0.00,,FEW,0.00,WeatherDisplay:10.37,2013-04-13 17:30:00,
2013-04-13 12:35:00,74.1,65.3,29.22,ESE,104,10.6,18.4,74,0.00,,FEW,0.00,WeatherDisplay:10.37,2013-04-13 17:35:00,
2013-04-13 12:42:00,73.6,65.2,29.22,ESE,117,8.0,20.7,75,0.00,,FEW,0.00,WeatherDisplay:10.37,2013-04-13 17:42:00,
2013-04-13 12:48:00,73.7,65.3,29.21,ESE,113,8.8,20.7,75,0.00,,FEW,0.00,WeatherDisplay:10.37,2013-04-13 17:48:00,
2013-04-13 12:53:00,73.7,65.3,29.21,East,90,11.0,20.7,75,0.00,,FEW,0.00,WeatherDisplay:10.37,2013-04-13 17:53:00,
2013-04-13 12:58:00,73.3,64.9,29.21,ESE,103,13.6,17.3,75,0.00,,FEW,0.00,WeatherDisplay:10.37,2013-04-13 17:58:00,
2013-04-13 13:03:00,73.3,65.3,29.20,ESE,122,9.5,18.4,76,0.00,,FEW,0.00,WeatherDisplay:10.37,2013-04-13 18:03:00,
2013-04-13 13:08:00,73.2,64.8,29.20,East,88,13.4,18.4,75,0.00,,FEW,0.00,WeatherDisplay:10.37,2013-04-13 18:08:00,
2013-04-13 13:13:00,72.9,64.9,29.20,ESE,118,7.2,17.9,76,0.00,,FEW,0.00,WeatherDisplay:10.37,2013-04-13 18:13:00,
2013-04-13 13:19:00,73.3,64.9,29.20,ENE,71,20.3,20.7,75,0.00,,FEW,0.00,WeatherDisplay:10.37,2013-04-13 18:19:00,
2013-04-13 13:24:00,73.9,65.1,29.20,East,96,8.6,15.0,74,0.00,,FEW,0.00,WeatherDisplay:10.37,2013-04-13 18:24:00,
2013-04-13 13:27:00,74.0,64.4,29.20,East,83,13.0,24.2,72,0.00,,FEW,0.00,WeatherDisplay:10.37,2013-04-13 18:27:00,
2013-04-13 13:32:00,73.8,64.6,29.20,East,95,12.9,18.4,73,0.00,,FEW,0.00,WeatherDisplay:10.37,2013-04-13 18:32:00,
2013-04-13 13:38:00,73.4,64.6,29.19,ENE,78,11.3,18.9,74,0.00,,FEW,0.00,WeatherDisplay:10.37,2013-04-13 18:38:00,
2013-04-13 13:43:00,73.4,64.6,29.19,ENE,77,11.2,20.7,74,0.00,,FEW,0.00,WeatherDisplay:10.37,2013-04-13 18:43:00,
2013-04-13 13:48:00,73.6,64.8,29.19,ESE,119,10.8,15.0,74,0.00,,FEW,0.00,WeatherDisplay:10.37,2013-04-13 18:48:00,
2013-04-13 13:53:00,74.0,64.8,29.19,ENE,57,19.1,19.1,73,0.00,,FEW,0.00,WeatherDisplay:10.37,2013-04-13 18:53:00,
2013-04-13 13:58:00,74.2,64.6,29.18,East,97,11.0,17.3,72,0.00,,FEW,0.00,WeatherDisplay:10.37,2013-04-13 18:58:00,
2013-04-13 14:03:00,74.4,64.8,29.18,ENE,78,6.6,12.7,72,0.00,,FEW,0.00,WeatherDisplay:10.37,2013-04-13 19:03:00,
2013-04-13 14:08:00,74.4,64.0,29.18,East,91,12.9,20.7,70,0.00,,FEW,0.00,WeatherDisplay:10.37,2013-04-13 19:08:00,
2013-04-13 14:13:00,74.2,64.6,29.18,ESE,115,7.0,11.5,72,0.00,,FEW,0.00,WeatherDisplay:10.37,2013-04-13 19:13:00,
2013-04-13 14:18:00,74.3,63.9,29.18,ENE,77,13.4,17.3,70,0.00,,FEW,0.00,WeatherDisplay:10.37,2013-04-13 19:18:00,
2013-04-13 14:23:00,74.5,65.3,29.18,NE,54,17.8,17.8,73,0.00,,FEW,0.00,WeatherDisplay:10.37,2013-04-13 19:23:00,
2013-04-13 14:28:00,74.5,64.9,29.17,ESE,121,6.9,11.5,72,0.00,,FEW,0.00,WeatherDisplay:10.37,2013-04-13 19:28:00,
2013-04-13 14:33:00,74.8,64.4,29.17,East,95,10.2,12.7,70,0.00,,FEW,0.00,WeatherDisplay:10.37,2013-04-13 19:33:00,
2013-04-13 14:38:00,74.5,63.7,29.17,East,85,16.2,18.4,69,0.00,,FEW,0.00,WeatherDisplay:10.37,2013-04-13 19:38:00,
2013-04-13 14:43:00,73.8,63.8,29.16,ESE,105,10.6,17.3,71,0.00,,FEW,0.00,WeatherDisplay:10.37,2013-04-13 19:43:00,
2013-04-13 14:48:00,74.1,64.1,29.16,SSE,162,7.3,11.5,71,0.00,,FEW,0.00,WeatherDisplay:10.37,2013-04-13 19:48:00,
2013-04-13 14:53:00,74.0,63.6,29.16,SE,124,11.3,24.2,70,0.00,,FEW,0.00,WeatherDisplay:10.37,2013-04-13 19:53:00,
2013-04-13 14:58:00,73.8,63.0,29.16,East,81,13.2,18.4,69,0.00,,FEW,0.00,WeatherDisplay:10.37,2013-04-13 19:58:00,
2013-04-13 15:03:00,74.2,64.2,29.15,NE,45,17.0,24.4,71,0.00,,FEW,0.00,WeatherDisplay:10.37,2013-04-13 20:03:00,
2013-04-13 15:08:00,74.0,63.6,29.16,East,100,9.8,15.0,70,0.00,,FEW,0.00,WeatherDisplay:10.37,2013-04-13 20:08:00,
2013-04-13 15:13:00,74.1,64.1,29.15,ESE,104,11.1,17.9,71,0.00,,FEW,0.00,WeatherDisplay:10.37,2013-04-13 20:13:00,
2013-04-13 15:18:00,73.9,63.1,29.15,East,92,11.2,17.3,69,0.00,,FEW,0.00,WeatherDisplay:10.37,2013-04-13 20:18:00,
2013-04-13 15:23:00,73.9,63.9,29.15,East,92,10.9,24.2,71,0.00,,FEW,0.00,WeatherDisplay:10.37,2013-04-13 20:23:00,
2013-04-13 15:28:00,73.8,63.8,29.15,East,81,9.3,16.1,71,0.00,,FEW,0.00,WeatherDisplay:10.37,2013-04-13 20:28:00,
2013-04-13 15:33:00,74.2,63.8,29.15,East,83,12.3,26.5,70,0.00,,FEW,0.00,WeatherDisplay:10.37,2013-04-13 20:33:00,
2013-04-13 15:38:00,74.0,63.6,29.15,ENE,61,19.0,19.0,70,0.00,,FEW,0.00,WeatherDisplay:10.37,2013-04-13 20:38:00,
2013-04-13 15:43:00,73.9,63.9,29.14,ENE,78,10.4,23.0,71,0.00,,FEW,0.00,WeatherDisplay:10.37,2013-04-13 20:43:00,
2013-04-13 15:48:00,74.1,63.7,29.14,ESE,106,10.6,20.7,70,0.00,,FEW,0.00,WeatherDisplay:10.37,2013-04-13 20:48:00,
2013-04-13 15:53:00,74.6,63.8,29.14,NE,53,24.5,24.5,69,0.00,,FEW,0.00,WeatherDisplay:10.37,2013-04-13 20:53:00,
2013-04-13 15:58:00,74.1,63.7,29.14,East,88,4.9,26.5,70,0.00,,FEW,0.00,WeatherDisplay:10.37,2013-04-13 20:58:00,
2013-04-13 16:03:00,73.6,63.2,29.13,SE,124,12.8,18.4,70,0.00,,FEW,0.00,WeatherDisplay:10.37,2013-04-13 21:03:00,
2013-04-13 16:08:00,72.9,62.9,29.13,ESE,119,14.0,18.4,71,0.00,,FEW,0.00,WeatherDisplay:10.37,2013-04-13 21:08:00,
2013-04-13 16:13:00,72.9,63.7,29.14,ENE,72,20.4,20.4,73,0.00,,FEW,0.00,WeatherDisplay:10.37,2013-04-13 21:13:00,
2013-04-13 16:18:00,73.5,63.9,29.14,East,90,7.4,8.1,72,0.00,,FEW,0.00,WeatherDisplay:10.37,2013-04-13 21:18:00,
2013-04-13 16:23:00,73.9,63.5,29.14,East,90,10.6,17.3,70,0.00,,FEW,0.00,WeatherDisplay:10.37,2013-04-13 21:23:00,
2013-04-13 16:28:00,74.0,63.6,29.13,NE,53,22.7,23.0,70,0.00,,FEW,0.00,WeatherDisplay:10.37,2013-04-13 21:28:00,
2013-04-13 16:33:00,73.9,63.5,29.14,East,95,10.9,20.7,70,0.00,,FEW,0.00,WeatherDisplay:10.37,2013-04-13 21:33:00,
2013-04-13 16:38:00,73.9,63.9,29.13,East,87,4.9,12.7,71,0.00,,FEW,0.00,WeatherDisplay:10.37,2013-04-13 21:38:00,
2013-04-13 16:43:00,73.7,63.3,29.13,East,85,11.3,15.0,70,0.00,,FEW,0.00,WeatherDisplay:10.37,2013-04-13 21:43:00,
2013-04-13 16:48:00,73.4,63.8,29.13,East,87,5.1,11.5,72,0.00,,FEW,0.00,WeatherDisplay:10.37,2013-04-13 21:48:00,
2013-04-13 16:53:00,73.5,63.9,29.13,East,99,10.2,13.7,72,0.00,,FEW,0.00,WeatherDisplay:10.37,2013-04-13 21:53:00,
2013-04-13 16:58:00,73.6,64.0,29.13,ESE,102,12.3,20.7,72,0.00,,FEW,0.00,WeatherDisplay:10.37,2013-04-13 21:58:00,
2013-04-13 17:03:00,73.3,64.1,29.13,ENE,72,19.3,19.3,73,0.00,,FEW,0.00,WeatherDisplay:10.37,2013-04-13 22:03:00,
2013-04-13 17:08:00,73.4,65.0,29.13,ESE,109,9.0,9.2,75,0.00,,FEW,0.00,WeatherDisplay:10.37,2013-04-13 22:08:00,
2013-04-13 17:13:00,73.1,64.3,29.13,East,81,7.6,15.0,74,0.00,,FEW,0.00,WeatherDisplay:10.37,2013-04-13 22:13:00,
2013-04-13 17:18:00,73.2,64.8,29.13,SE,128,10.4,17.3,75,0.00,,FEW,0.00,WeatherDisplay:10.37,2013-04-13 22:18:00,
2013-04-13 17:23:00,73.0,64.6,29.13,East,80,9.3,9.4,75,0.00,,FEW,0.00,WeatherDisplay:10.37,2013-04-13 22:23:00,
2013-04-13 17:28:00,73.0,64.6,29.14,ENE,66,10.8,15.0,75,0.00,,FEW,0.00,WeatherDisplay:10.37,2013-04-13 22:28:00,
2013-04-13 17:33:00,72.8,64.4,29.14,ESE,104,8.2,11.5,75,0.00,,FEW,0.00,WeatherDisplay:10.37,2013-04-13 22:33:00,
2013-04-13 17:38:00,72.7,64.7,29.14,East,90,6.2,11.5,76,0.00,,FEW,0.00,WeatherDisplay:10.37,2013-04-13 22:38:00,
2013-04-13 17:43:00,72.5,64.1,29.14,ESE,114,8.2,11.5,75,0.00,,FEW,0.00,WeatherDisplay:10.37,2013-04-13 22:43:00,
2013-04-13 17:48:00,72.5,64.1,29.14,East,92,5.0,11.5,75,0.00,,FEW,0.00,WeatherDisplay:10.37,2013-04-13 22:48:00,
2013-04-13 17:53:00,72.3,64.3,29.14,ESE,120,5.1,9.2,76,0.00,,FEW,0.00,WeatherDisplay:10.37,2013-04-13 22:53:00,
2013-04-13 17:58:00,72.6,64.2,29.14,NNE,31,13.5,13.5,75,0.00,,FEW,0.00,WeatherDisplay:10.37,2013-04-13 22:58:00,
2013-04-13 18:03:00,72.5,64.1,29.14,ESE,111,6.7,9.2,75,0.00,,FEW,0.00,WeatherDisplay:10.37,2013-04-13 23:03:00,
2013-04-13 18:08:00,72.8,64.4,29.14,SE,133,6.9,9.4,75,0.00,,FEW,0.00,WeatherDisplay:10.37,2013-04-13 23:08:00,
2013-04-13 18:13:00,72.7,64.3,29.14,East,91,7.8,11.5,75,0.00,,FEW,0.00,WeatherDisplay:10.37,2013-04-13 23:13:00,
2013-04-13 18:18:00,72.3,63.5,29.14,ESE,114,9.0,15.0,74,0.00,,FEW,0.00,WeatherDisplay:10.37,2013-04-13 23:18:00,
2013-04-13 18:23:00,72.1,63.7,29.13,East,87,8.6,15.0,75,0.00,,FEW,0.00,WeatherDisplay:10.37,2013-04-13 23:23:00,
2013-04-13 18:28:00,71.9,63.5,29.12,ESE,106,7.9,12.7,75,0.00,,FEW,0.00,WeatherDisplay:10.37,2013-04-13 23:28:00,
2013-04-13 18:33:00,71.8,63.8,29.12,ESE,114,9.9,15.8,76,0.00,,FEW,0.00,WeatherDisplay:10.37,2013-04-13 23:33:00,
2013-04-13 18:38:00,71.7,63.7,29.12,ESE,103,8.1,20.7,76,0.00,,FEW,0.00,WeatherDisplay:10.37,2013-04-13 23:38:00,
2013-04-13 18:44:00,71.6,64.0,29.11,East,88,10.2,17.3,77,0.00,,FEW,0.00,WeatherDisplay:10.37,2013-04-13 23:44:00,
2013-04-13 18:49:00,71.5,63.9,29.11,ESE,107,11.7,13.8,77,0.00,,FEW,0.00,WeatherDisplay:10.37,2013-04-13 23:49:00,
2013-04-13 18:54:00,71.2,64.0,29.10,East,101,9.5,11.5,78,0.00,,FEW,0.00,WeatherDisplay:10.37,2013-04-13 23:54:00,
2013-04-13 18:59:00,70.9,63.7,29.09,ESE,121,11.0,17.3,78,0.00,,FEW,0.00,WeatherDisplay:10.37,2013-04-13 23:59:00,
2013-04-13 19:04:00,70.7,63.5,29.09,ESE,106,12.2,26.5,78,0.00,,FEW,0.00,WeatherDisplay:10.37,2013-04-14 00:04:00,
2013-04-13 19:09:00,70.6,63.8,29.09,SE,132,7.9,11.5,79,0.00,,FEW,0.00,WeatherDisplay:10.37,2013-04-14 00:09:00,
2013-04-13 19:14:00,70.5,64.0,29.09,East,84,10.0,12.7,80,0.00,,FEW,0.00,WeatherDisplay:10.37,2013-04-14 00:14:00,
2013-04-13 19:19:00,70.4,63.9,29.09,ENE,57,20.0,20.0,80,0.00,,FEW,0.00,WeatherDisplay:10.37,2013-04-14 00:19:00,
2013-04-13 19:24:00,70.2,64.1,29.09,East,81,7.6,12.7,81,0.00,,FEW,0.00,WeatherDisplay:10.37,2013-04-14 00:24:00,
2013-04-13 19:29:00,70.0,64.2,29.09,East,92,7.8,11.5,82,0.00,,FEW,0.00,WeatherDisplay:10.37,2013-04-14 00:29:00,
2013-04-13 19:34:00,69.7,64.0,29.09,ESE,112,7.4,11.5,82,0.00,,FEW,0.00,WeatherDisplay:10.37,2013-04-14 00:34:00,
2013-04-13 19:39:00,69.5,64.1,29.09,ESE,118,9.5,16.1,83,0.00,,FEW,0.00,WeatherDisplay:10.37,2013-04-14 00:39:00,
2013-04-13 19:44:00,69.4,64.4,29.09,ENE,78,4.9,5.8,84,0.00,,FEW,0.00,WeatherDisplay:10.37,2013-04-14 00:44:00,
2013-04-13 19:49:00,69.2,64.2,29.09,SE,135,5.8,10.4,84,0.00,,FEW,0.00,WeatherDisplay:10.37,2013-04-14 00:49:00,
2013-04-13 19:54:00,69.1,64.4,29.09,ESE,121,8.3,12.7,85,0.00,,FEW,0.00,WeatherDisplay:10.37,2013-04-14 00:54:00,
2013-04-13 19:59:00,69.0,64.3,29.09,ESE,116,7.4,11.5,85,0.00,,FEW,0.00,WeatherDisplay:10.37,2013-04-14 00:59:00,
2013-04-13 20:04:00,68.9,64.2,29.10,ESE,116,4.6,13.8,85,0.00,,FEW,0.00,WeatherDisplay:10.37,2013-04-14 01:04:00,
2013-04-13 20:09:00,68.9,64.2,29.10,ESE,122,2.7,6.9,85,0.00,,FEW,0.00,WeatherDisplay:10.37,2013-04-14 01:09:00,
2013-04-13 20:14:00,68.9,64.5,29.11,East,98,4.2,5.8,86,0.00,,FEW,0.00,WeatherDisplay:10.37,2013-04-14 01:14:00,
2013-04-13 20:19:00,68.9,64.5,29.12,ESE,117,3.7,5.8,86,0.00,,FEW,0.00,WeatherDisplay:10.37,2013-04-14 01:19:00,
2013-04-13 20:24:00,68.8,64.4,29.12,East,98,4.6,4.6,86,0.00,,FEW,0.00,WeatherDisplay:10.37,2013-04-14 01:24:00,
2013-04-13 20:29:00,68.7,64.3,29.12,NNE,19,4.4,8.1,86,0.00,,FEW,0.00,WeatherDisplay:10.37,2013-04-14 01:29:00,
2013-04-13 20:34:00,68.6,64.2,29.12,ENE,64,7.2,8.1,86,0.00,,FEW,0.00,WeatherDisplay:10.37,2013-04-14 01:34:00,
2013-04-13 20:39:00,68.6,64.2,29.12,SE,128,0.7,1.1,86,0.00,,FEW,0.00,WeatherDisplay:10.37,2013-04-14 01:39:00,
2013-04-13 20:44:00,68.5,64.5,29.13,ESE,112,1.2,3.5,87,0.00,,FEW,0.00,WeatherDisplay:10.37,2013-04-14 01:44:00,
2013-04-13 20:49:00,68.4,64.4,29.13,ESE,107,1.6,5.8,87,0.00,,FEW,0.00,WeatherDisplay:10.37,2013-04-14 01:49:00,
2013-04-13 20:54:00,68.4,64.4,29.13,East,99,6.5,6.5,87,0.00,,FEW,0.00,WeatherDisplay:10.37,2013-04-14 01:54:00,
2013-04-13 20:59:00,68.4,64.4,29.13,ESE,106,0.8,4.6,87,0.00,,FEW,0.00,WeatherDisplay:10.37,2013-04-14 01:59:00,
2013-04-13 21:04:00,68.3,64.6,29.13,East,98,2.0,9.4,88,0.00,,FEW,0.00,WeatherDisplay:10.37,2013-04-14 02:04:00,
2013-04-13 21:09:00,68.2,64.5,29.13,East,92,0.3,1.1,88,0.00,,FEW,0.00,WeatherDisplay:10.37,2013-04-14 02:09:00,
2013-04-13 21:14:00,68.2,64.5,29.13,ESE,111,1.8,2.3,88,0.00,,FEW,0.00,WeatherDisplay:10.37,2013-04-14 02:14:00,
2013-04-13 21:19:00,68.3,64.6,29.13,ESE,115,2.1,3.5,88,0.00,,FEW,0.00,WeatherDisplay:10.37,2013-04-14 02:19:00,
2013-04-13 21:24:00,68.4,64.7,29.13,ESE,102,1.1,5.8,88,0.00,,FEW,0.00,WeatherDisplay:10.37,2013-04-14 02:24:00,
2013-04-13 21:29:00,68.5,64.8,29.13,ESE,115,2.0,5.3,88,0.00,,FEW,0.00,WeatherDisplay:10.37,2013-04-14 02:29:00,
2013-04-13 21:34:00,68.7,65.0,29.14,ESE,107,1.5,1.5,88,0.00,,FEW,0.00,WeatherDisplay:10.37,2013-04-14 02:34:00,
2013-04-13 21:39:00,68.7,65.0,29.14,East,98,0.2,5.8,88,0.00,,FEW,0.00,WeatherDisplay:10.37,2013-04-14 02:39:00,
2013-04-13 21:44:00,68.8,65.1,29.13,ESE,115,0.4,5.3,88,0.00,,FEW,0.00,WeatherDisplay:10.37,2013-04-14 02:44:00,
2013-04-13 21:49:00,68.8,65.1,29.14,SE,127,0.1,2.3,88,0.00,,FEW,0.00,WeatherDisplay:10.37,2013-04-14 02:49:00,
2013-04-13 21:54:00,68.8,65.1,29.14,SE,127,2.0,3.5,88,0.00,,FEW,0.00,WeatherDisplay:10.37,2013-04-14 02:54:00,
2013-04-13 21:59:00,68.9,65.2,29.14,ESE,122,2.1,5.8,88,0.00,,FEW,0.00,WeatherDisplay:10.37,2013-04-14 02:59:00,
2013-04-13 22:04:00,68.9,65.2,29.14,ESE,118,2.1,5.8,88,0.00,,FEW,0.00,WeatherDisplay:10.37,2013-04-14 03:04:00,
2013-04-13 22:09:00,69.0,65.3,29.14,SE,145,2.6,4.6,88,0.00,,FEW,0.00,WeatherDisplay:10.37,2013-04-14 03:09:00,
2013-04-13 22:14:00,69.0,65.3,29.14,East,100,3.3,5.8,88,0.00,,FEW,0.00,WeatherDisplay:10.37,2013-04-14 03:14:00,
2013-04-13 22:19:00,69.0,65.3,29.14,SE,129,1.6,8.1,88,0.00,,FEW,0.00,WeatherDisplay:10.37,2013-04-14 03:19:00,
2013-04-13 22:24:00,68.9,65.2,29.13,ESE,111,2.7,5.8,88,0.00,,FEW,0.00,WeatherDisplay:10.37,2013-04-14 03:24:00,
2013-04-13 22:29:00,68.7,65.0,29.13,East,86,2.6,5.8,88,0.00,,FEW,0.00,WeatherDisplay:10.37,2013-04-14 03:29:00,
2013-04-13 22:34:00,68.5,65.1,29.13,ESE,105,3.2,3.2,89,0.00,,FEW,0.00,WeatherDisplay:10.37,2013-04-14 03:34:00,
2013-04-13 22:39:00,68.4,65.0,29.13,East,101,3.8,8.1,89,0.00,,FEW,0.00,WeatherDisplay:10.37,2013-04-14 03:39:00,
2013-04-13 22:44:00,68.3,64.9,29.13,East,98,1.0,5.8,89,0.00,,FEW,0.00,WeatherDisplay:10.37,2013-04-14 03:44:00,
2013-04-13 22:49:00,68.2,65.2,29.14,ESE,118,1.7,3.5,90,0.00,,FEW,0.00,WeatherDisplay:10.37,2013-04-14 03:49:00,
2013-04-13 22:54:00,68.2,65.2,29.14,ESE,115,1.6,3.5,90,0.00,,FEW,0.00,WeatherDisplay:10.37,2013-04-14 03:54:00,
2013-04-13 22:59:00,68.0,65.0,29.14,ESE,102,0.7,0.0,90,0.00,,FEW,0.00,WeatherDisplay:10.37,2013-04-14 03:59:00,
2013-04-13 23:00:00,68.0,65.0,29.14,ESE,103,0.7,3.5,90,0.00,,FEW,0.00,WeatherDisplay:10.37,2013-04-14 04:00:00,
2013-04-13 23:05:00,68.0,65.3,29.14,East,96,2.4,4.6,91,0.00,,FEW,0.00,WeatherDisplay:10.37,2013-04-14 04:05:00,
2013-04-13 23:10:00,68.0,65.3,29.14,East,92,2.3,2.3,91,0.00,,FEW,0.00,WeatherDisplay:10.37,2013-04-14 04:10:00,
2013-04-13 23:15:00,67.9,65.2,29.14,ESE,102,0.0,1.1,91,0.00,,FEW,0.00,WeatherDisplay:10.37,2013-04-14 04:15:00,
2013-04-13 23:20:00,67.8,65.1,29.14,East,97,0.5,5.8,91,0.00,,FEW,0.00,WeatherDisplay:10.37,2013-04-14 04:20:00,
2013-04-13 23:25:00,67.6,64.9,29.13,ESE,105,0.1,2.3,91,0.00,,FEW,0.00,WeatherDisplay:10.37,2013-04-14 04:25:00,
2013-04-13 23:30:00,67.5,64.8,29.13,East,99,0.3,3.5,91,0.00,,FEW,0.00,WeatherDisplay:10.37,2013-04-14 04:30:00,
2013-04-13 23:35:00,67.4,64.7,29.13,East,99,0.2,1.1,91,0.00,,FEW,0.00,WeatherDisplay:10.37,2013-04-14 04:35:00,
2013-04-13 23:40:00,67.4,65.0,29.12,ESE,116,2.4,3.5,92,0.00,,FEW,0.00,WeatherDisplay:10.37,2013-04-14 04:40:00,
2013-04-13 23:45:00,67.4,65.0,29.12,East,81,3.8,5.8,92,0.00,,FEW,0.00,WeatherDisplay:10.37,2013-04-14 04:45:00,
2013-04-13 23:50:00,67.4,65.0,29.11,East,94,1.9,4.6,92,0.00,,FEW,0.00,WeatherDisplay:10.37,2013-04-14 04:50:00,
2013-04-13 23:55:00,67.5,65.1,29.11,East,99,1.9,3.5,92,0.00,,FEW,0.00,WeatherDisplay:10.37,2013-04-14 04:55:00,